Weather History for Marysville, CA

Change the Weather History Date:

Tuesday, February 19, 2013

  Actual Average Record
Temperature  
Mean Temperature 41 °F -  
Max Temperature 50 °F 62 °F 76 °F (1977)
Min Temperature 32 °F 45 °F 32 °F (1990)
Degree Days  
Heating Degree Days 24    
Moisture  
Dew Point 38 °F    
Average Humidity 89    
Maximum Humidity 100    
Minimum Humidity 76    
Precipitation  
Precipitation 0.21 in - - ()
Sea Level Pressure  
Sea Level Pressure 29.81 in    
Wind  
Wind Speed 12 mph (SE)    
Max Wind Speed 20 mph    
Max Gust Speed 29 mph    
Visibility 7 miles    
Events Fog , Rain    
Averages and records for this station are not official NWS values.
T = Trace of Precipitation, MM = Missing Value Source: NWS Daily Summary

Daily Weather History Graph

Daily Weather History Graph

Search for Another Location

Airport:

Trip Planner

Search our weather history database for the weather conditions in past years. The results will help you decide how hot, cold, wet, or windy it might be!

Date:

Astronomy

Feb. 19, 2013 Rise Set
Actual Time 6:52 AM PST 5:48 PM PST
Civil Twilight 6:25 AM PST 6:15 PM PST
Nautical Twilight 5:53 AM PST 6:46 PM PST
Astronomical Twilight 5:23 AM PST 7:17 PM PST
Moon 12:25 PM PST (2/19) 2:27 AM PST (2/19)
Length of Visible Light 11h 50m
Length of Day
10h 56m
Waxing Gibbous, 68% of the Moon is Illuminated
Feb 19
Waxing Gibbous
Feb 25
Full
Mar 4
Last Quarter
Mar 11
New
Mar 19
First Quarter

Hourly Weather History & Observations

Time (PST) Temp. Windchill Dew Point Humidity Pressure Visibility Wind Dir Wind Speed Gust Speed Precip Events Conditions
12:53 AM 45.0 °F 37.9 °F 39.0 °F 80% 29.91 in 10.0 mi SSE 16.1 mph - N/A   Clear
1:53 AM 44.1 °F 37.4 °F 37.9 °F 79% 29.91 in 10.0 mi SSE 13.8 mph - N/A   Scattered Clouds
2:53 AM 43.0 °F 36.4 °F 37.9 °F 82% 29.89 in 10.0 mi SSE 12.7 mph - N/A   Partly Cloudy
3:53 AM 42.1 °F 35.7 °F 37.0 °F 82% 29.89 in 10.0 mi SSE 11.5 mph - N/A   Clear
4:53 AM 41.0 °F 34.7 °F 36.0 °F 82% 29.89 in 10.0 mi SE 10.4 mph - N/A   Clear
5:53 AM 41.0 °F 32.8 °F 37.0 °F 86% 29.88 in 10.0 mi SE 16.1 mph - N/A   Scattered Clouds
6:53 AM 42.1 °F 34.5 °F 37.0 °F 82% 29.86 in 10.0 mi SE 15.0 mph - N/A   Mostly Cloudy
7:53 AM 44.1 °F 37.4 °F 37.9 °F 79% 29.84 in 10.0 mi SSE 13.8 mph - N/A   Overcast
8:53 AM 45.0 °F 37.1 °F 39.9 °F 82% 29.82 in 10.0 mi SSE 19.6 mph 26.5 mph 0.00 in Rain Light Rain
9:06 AM 44.6 °F 37.2 °F 39.2 °F 81% 29.80 in 9.0 mi SSE 17.3 mph 25.3 mph 0.00 in Rain Light Rain
10:07 AM 44.6 °F 36.9 °F 42.8 °F 93% 29.79 in 2.5 mi SSE 18.4 mph 25.3 mph 0.03 in Rain Rain
10:13 AM 44.6 °F 37.2 °F 42.8 °F 93% 29.79 in 2.0 mi SSE 17.3 mph - 0.05 in Rain Rain
10:25 AM 44.6 °F 36.9 °F 42.8 °F 93% 29.78 in 4.0 mi SSE 18.4 mph 26.5 mph 0.07 in Rain Light Rain
10:53 AM 45.0 °F 37.1 °F 43.0 °F 93% 29.80 in 6.0 mi South 19.6 mph - 0.10 in Rain Light Rain
11:10 AM 44.6 °F 37.8 °F 42.8 °F 93% 29.78 in 7.0 mi South 15.0 mph - 0.02 in Rain Light Rain
11:53 AM 46.9 °F - 44.1 °F 90% 29.77 in 10.0 mi SSE 12.7 mph - 0.02 in   Overcast
12:53 PM 46.9 °F - 44.1 °F 90% 29.75 in 10.0 mi South 15.0 mph - N/A   Overcast
1:35 PM 48.2 °F - 44.6 °F 87% 29.73 in 10.0 mi South 13.8 mph - N/A   Mostly Cloudy
1:53 PM 48.9 °F - 42.1 °F 77% 29.74 in 10.0 mi SSE 13.8 mph - N/A   Overcast
2:07 PM 50.0 °F - 42.8 °F 76% 29.72 in 10.0 mi SSE 18.4 mph - N/A   Mostly Cloudy
2:53 PM 48.9 °F - 42.1 °F 77% 29.74 in 10.0 mi SSE 12.7 mph - N/A   Scattered Clouds
4:53 PM 45.0 °F 38.9 °F 39.0 °F 80% 29.74 in 10.0 mi SE 12.7 mph - N/A   Partly Cloudy
5:53 PM 39.0 °F 29.6 °F 34.0 °F 82% 29.78 in 10.0 mi North 18.4 mph 28.8 mph 0.00 in Rain Light Rain
6:00 PM 37.4 °F 30.8 °F 35.6 °F 93% 29.78 in 7.0 mi North 9.2 mph 20.7 mph 0.01 in Rain Rain
6:53 PM 39.0 °F 33.4 °F 36.0 °F 89% 29.80 in 10.0 mi ENE 8.1 mph - 0.09 in Rain Light Rain
7:04 PM 39.2 °F 35.9 °F 37.4 °F 93% 29.78 in 10.0 mi North 4.6 mph - 0.00 in Rain Light Rain
7:53 PM 37.9 °F 34.4 °F 36.0 °F 93% 29.80 in 10.0 mi North 4.6 mph - 0.00 in   Scattered Clouds
8:17 PM 37.4 °F 33.8 °F 35.6 °F 93% 29.78 in 10.0 mi NW 4.6 mph - N/A   Mostly Cloudy
8:25 PM 35.6 °F 31.7 °F 33.8 °F 93% 29.78 in 10.0 mi NNW 4.6 mph - N/A   Scattered Clouds
8:53 PM 37.0 °F 33.3 °F 36.0 °F 96% 29.80 in 10.0 mi NE 4.6 mph - N/A   Clear
9:53 PM 36.0 °F - 35.1 °F 97% 29.83 in 10.0 mi Calm Calm - N/A   Clear
10:53 PM 35.1 °F - 33.1 °F 92% 29.83 in 4.0 mi Calm Calm - N/A   Clear
10:56 PM 33.8 °F - 33.8 °F 100% 29.82 in 1.8 mi Calm Calm - N/A   Clear
11:05 PM 33.8 °F - 32.0 °F 93% 29.82 in 0.8 mi Calm Calm - N/A   Clear
11:12 PM 32.0 °F - 32.0 °F 100% 29.81 in 1.0 mi Calm Calm - N/A   Clear
11:16 PM 33.8 °F - 32.0 °F 93% 29.81 in 2.5 mi Calm Calm - N/A   Clear
11:23 PM 33.8 °F - 33.8 °F 100% 29.81 in 5.0 mi Calm Calm - N/A   Clear
11:36 PM 33.8 °F - 32.0 °F 93% 29.82 in 1.8 mi Calm Calm - N/A   Clear
11:44 PM 33.8 °F - 33.8 °F 100% 29.83 in 1.0 mi Calm Calm - N/A   Clear
11:53 PM 33.1 °F - 33.1 °F 100% 29.84 in 1.2 mi Calm Calm - N/A   Clear
11:57 PM 32.0 °F - 32.0 °F 100% 29.83 in 0.5 mi Calm Calm - N/A Fog Fog